Regional Weather Roundup
Issued by NWS

Home | Current Version | Previous Version | Graphics & Text | Print | Product List | Glossary Off
Versions: 1 2 3 4 5 6 7 8 9 10 11 12 13 14 15 16 17 18 19 20 21 22 23 24 25 26 27 28 29 30 31 32 33 34 35 36 37 38 39 40 41 42 43 44 45 46 47 48 49 50

546
ASUS43 KMKX 100821
RWRWI

WISCONSIN REGIONAL WEATHER ROUNDUP
NATIONAL WEATHER SERVICE MILWAUKEE/SULLIVAN WI
200 AM CST SAT DEC 10 2016

NOTE: "FAIR" INDICATES FEW OR NO CLOUDS BELOW 12,000 FEET WITH NO
SIGNIFICANT WEATHER AND/OR OBSTRUCTIONS TO VISIBILITY.

WIZ001-002-006>008-014>016-023>028-100900-
NORTHWEST WISCONSIN

CITY           SKY/WX    TMP DP  RH WIND       PRES   REMARKS
SUPERIOR ARPT  CLOUDY     9  -1  61 NW8       30.49S WCI  -3
ASHLAND        CLOUDY     8   4  83 W6        30.46S FOG     WCI  -2
HAYWARD        FLURRIES   9  -2  61 NW5       30.43S WCI   1
SIREN          CLOUDY    11   4  73 NW5       30.46S WCI   3
CUMBERLAND     CLOUDY    10   1  67 W5        30.42S WCI   2
RICE LAKE      CLOUDY    12   1  62 W5        30.45S WCI   4
CHETEK         CLOUDY    12   1  63 NW5       30.45R WCI   4
LADYSMITH      FLURRIES  12   6  77 NW8       30.43S WCI   0
EAU CLAIRE     CLOUDY    13   5  70 W8        30.46R WCI   2
MENOMONIE      CLOUDY    13   4  67 W9        30.47R WCI   1
NEW RICHMOND   CLOUDY    10   2  70 W8        30.47S WCI  -1
OSCEOLA        MOCLDY    10   3  75 W7        30.51S WCI  -2
$$

WIZ003>005-009-010-017-018-100900-
NORTH CENTRAL WISCONSIN

CITY           SKY/WX    TMP DP  RH WIND       PRES   REMARKS
MANITOWISH WTR CLOUDY     6   1  78 NW5       30.36R WCI  -3
ARBOR VITAE    CLOUDY    11   3  70 NW7       30.35S WCI   1
WOODRUFF       CLOUDY    11   3  70 NW7       30.35S WCI   1
RHINELANDER    CLOUDY    11   3  70 NW8       30.35R WCI  -1
EAGLE RIVER    CLOUDY     8  -1  65 NW9       30.34S WCI  -5
LAND O LAKES   CLOUDY     8  -1  68 W5        30.36R WCI   0
PHILLIPS       CLOUDY     8   2  78 NW5       30.38R WCI  -1
TOMAHAWK       LGT SNOW  10   6  82 NW3       30.37S
MEDFORD        CLOUDY    11   4  73 W6        30.37S WCI   1
MERRILL        CLOUDY    13   3  65 W7        30.39R WCI   3
$$

WIZ029-030-035-036-043>047-100900-
CENTRAL WISCONSIN

CITY           SKY/WX    TMP DP  RH WIND       PRES   REMARKS
WAUSAU         CLOUDY    13   5  70 W13       30.38S WCI  -2
MOSINEE        FLURRIES  14  12  92 W8        30.40R WCI   3
MARSHFIELD     FLURRIES  13   7  77 W10       30.39S WCI   0
STEVENS POINT  FLURRIES  14   9  79 W9        30.41S WCI   2
WAUPACA        CLOUDY    19  10  68 SW5       30.43S WCI  12
WAUTOMA        PTCLDY    12   9  85 SW5       30.46R WCI   4
WISC RAPIDS    MOCLDY    14   8  77 W10       30.44R WCI   1
CAMP DOUGLAS   PTCLDY    10   7  85 W7        30.46R WCI   0
$$

WIZ011>013-019>022-031-037>040-048>050-100900-
NORTHEAST WISCONSIN

CITY           SKY/WX    TMP DP  RH WIND       PRES   REMARKS
ANTIGO         FLURRIES  11   7  83 NW5       30.35S WCI   3
SHAWANO        CLOUDY    19   7  58 W6        30.42S WCI  11
OCONTO         CLOUDY    18   8  64 W7        30.42R WCI   8
STURGEON BAY   CLOUDY    19   9  65 W10       30.40S WCI   7
GREEN BAY      CLOUDY    20  10  65 NW8       30.43S WCI  10
MANITOWOC      FLURRIES  20  11  68 W9        30.44S WCI   9
APPLETON       CLOUDY    18   9  68 W9        30.41R WCI   6
CLINTONVILLE   CLOUDY    18  10  73 W6        30.42R WCI   9
OSHKOSH        MOCLDY    15   9  76 W6        30.44R WCI   6
$$

WIZ032>034-041-042-053>061-100900-
SOUTHWEST WISCONSIN

CITY           SKY/WX    TMP DP  RH WIND       PRES   REMARKS
LA CROSSE      PTCLDY    14   7  73 W9        30.50R WCI   2
SPARTA         CLEAR     14   9  79 W8        30.48R WCI   3
VIROQUA        PTCLDY    11   9  91 W5        30.44S WCI   3
BOSCOBEL       CLOUDY    18  13  80 SW6       30.50S WCI  10
PRAIRIE DU CHI CLOUDY    17  12  80 W5        30.51R WCI  10
PLATTEVILLE    CLOUDY    17  15  93 CALM      30.48S
$$

WIZ056-057-062-063-064-067-068-100900-
SOUTH CENTRAL WISCONSIN

CITY           SKY/WX    TMP DP  RH WIND       PRES   REMARKS
REEDSBURG      CLEAR     14  10  84 W6        30.46R WCI   5
BARABOO/DELLS  CLEAR     14  10  82 W5        30.45R WCI   6
LONE ROCK      CLOUDY    18  12  77 W7        30.49S WCI   9
MINERAL POINT  MOCLDY    18  16  93 W5        30.46R WCI  11
MADISON        CLOUDY    17  11  77 W6        30.46S WCI   9
MIDDLETON      PTCLDY    19  14  82 W6        30.47R WCI  10
WATERTOWN      CLOUDY    18  13  81 W6        30.46S WCI  10
MONROE         CLOUDY    18  14  86 W7        30.46S WCI   8
JANESVILLE     CLOUDY    19  14  79 W7        30.48S WCI  10
$$

WIZ051-052-058>065-066-070>072-100900-
SOUTHEAST WISCONSIN

CITY           SKY/WX    TMP DP  RH WIND       PRES   REMARKS
MILWAUKEE      CLOUDY    20  11  68 W7        30.46F WCI  11
WAUKESHA       MOCLDY    18  12  79 W8        30.46S WCI   7
MILWAUKEE/TIMM CLOUDY    19  12  73 W6        30.47S WCI  11
RACINE         CLOUDY    19  11  70 W7        30.48F WCI  10
BURLINGTON     PTCLDY    23  19  84 W7        30.47S WCI  14
KENOSHA        CLOUDY    19  13  77 W10       30.48S WCI   7
FOND DU LAC    CLOUDY    17   7  64 W8        30.45S WCI   7
SHEBOYGAN      CLOUDY    16  10  77 SW6       30.44S WCI   7
WEST BEND      FLURRIES  18  12  79 W7        30.44S WCI   8
JUNEAU         PTCLDY    15  11  84 CALM      30.46S
$$

LSZ147-162-100900-
LAKE SUPERIOR

STATION/POSITION TIME  TEMP    WIND        PRES    WAVE
                       AIR SEA DIR/SP/G            HT/PER
                 (UTC) (F)     (DEG/KT/KT) (MB)    (FT/S)
DEVILS ISLAND    0800   10     290/ 10/ 12 1032.7R
PORT WING        0730   11     320/ 16/ 21 1031.5S
SAXON HARBOR     0740   10     220/  6/ 10 1030.8F
$$

LMZ867-665-643>646-100900-
LAKE MICHIGAN

STATION/POSITION TIME  TEMP    WIND        PRES    WAVE
                       AIR SEA DIR/SP/G            HT/PER
                 (UTC) (F)     (DEG/KT/KT) (MB)    (FT/S)
CHAMBERS ISLAND  0740   20     270/  4/ 13 1028.8R
NORTHPORT PIER   0753   20     280/  8/ 21 1029.1R
SISTER BAY       0750   21     320/ 18/ 21   N/A
ALGOMA LAKESHORE 0751          270/  9/ 12   N/A
KEWAUNEE LAKESHO 0800   18     280/  5/ 11 1029.7
SHEBOYGAN LAKESH 0800   18     260/  7/  8 1032.0S
PORT WASHINGTON  0740   20     270/  4/  8 1032.2S
KENOSHA   LAKESH 0800   20     270/  9/ 13 1032.2
$$

TC  - TEMPERATURE IN CELSIUS
VSB - VISIBILITY IN STATUTE MILES
WCI - WIND CHILL INDEX
HX  - HEAT INDEX





USA.gov is the U.S. government's official web portal to all federal, state and local government web resources and services.